Weather History for Point Mugu, CA

Change the Weather History Date:

Tuesday, July 16, 2013

  Actual Average Record
Temperature  
Mean Temperature 64 °F -  
Max Temperature 70 °F 69 °F 80 °F (2004)
Min Temperature 58 °F 56 °F 50 °F (2001)
Degree Days  
Heating Degree Days 1    
Growing Degree Days 14 (Base 50)    
Moisture  
Dew Point 57 °F    
Average Humidity 76    
Maximum Humidity 87    
Minimum Humidity 62    
Precipitation  
Precipitation 0.00 in - - ()
Sea Level Pressure  
Sea Level Pressure 29.94 in    
Wind  
Wind Speed 6 mph (NW)    
Max Wind Speed 15 mph    
Max Gust Speed 18 mph    
Visibility 6 miles    
Events      
Averages and records for this station are not official NWS values.
T = Trace of Precipitation, MM = Missing Value Source: NWS Daily Summary

Daily Weather History Graph

Daily Weather History Graph

Search for Another Location

Airport:

Trip Planner

Search our weather history database for the weather conditions in past years. The results will help you decide how hot, cold, wet, or windy it might be!

Date:

Astronomy

Jul. 16, 2013 Rise Set
Actual Time 5:56 AM PDT 8:08 PM PDT
Civil Twilight 5:28 AM PDT 8:36 PM PDT
Nautical Twilight 4:53 AM PDT 9:11 PM PDT
Astronomical Twilight 4:15 AM PDT 9:48 PM PDT
Moon 2:00 PM PDT (7/16) 12:21 AM PDT (7/16)
Length of Visible Light 15h 08m
Length of Day
14h 11m
First Quarter, 57% of the Moon is Illuminated
Jul 16
First Quarter
Jul 22
Full
Jul 29
Last Quarter
Aug 6
New
Aug 14
First Quarter

Hourly Weather History & Observations

Time (PDT) Temp. Dew Point Humidity Pressure Visibility Wind Dir Wind Speed Gust Speed Precip Events Conditions
12:54 AM - - N/A% - - NNE 3.5 mph - N/A   Clear
1:54 AM - - N/A% - - NE 3.5 mph - N/A   Clear
2:54 AM - - N/A% - - NNE 3.5 mph - N/A   Clear
3:54 AM - - N/A% - - NNE 4.6 mph - N/A   Clear
4:54 AM - - N/A% - - North 4.6 mph - N/A   Clear
5:23 AM - - N/A% - - North 4.6 mph - N/A   Scattered Clouds
5:54 AM 58.8 °F 52.0 °F 78% 29.88 in 5.0 mi North 3.5 mph - N/A   Haze
6:54 AM 59.2 °F 55.4 °F 87% 29.91 in 5.0 mi NE 4.6 mph - N/A   Mostly Cloudy
7:54 AM 60.1 °F 55.9 °F 86% 29.95 in 5.0 mi NNE 3.5 mph - N/A   Mostly Cloudy
8:54 AM 61.3 °F 55.8 °F 82% 29.94 in 5.0 mi Calm Calm - N/A   Haze
9:31 AM 64.4 °F 57.2 °F 77% 29.94 in 5.0 mi Calm Calm - N/A   Haze
9:54 AM 64.8 °F 58.1 °F 79% 29.94 in 7.0 mi West 8.1 mph - N/A   Mostly Cloudy
10:54 AM 64.9 °F 56.7 °F 74% 29.94 in 7.0 mi West 9.2 mph - N/A   Mostly Cloudy
11:54 AM 67.6 °F 59.0 °F 74% 29.94 in 7.0 mi West 13.8 mph - N/A   Mostly Cloudy
12:54 PM 68.0 °F 56.3 °F 66% 29.94 in 7.0 mi West 13.8 mph - N/A   Scattered Clouds
1:54 PM 68.0 °F 56.3 °F 66% 29.94 in 7.0 mi West 12.7 mph - N/A   Scattered Clouds
2:54 PM 69.1 °F 57.9 °F 68% 29.94 in 7.0 mi West 11.5 mph - N/A   Partly Cloudy
3:54 PM 70.3 °F 58.3 °F 66% 29.94 in 7.0 mi West 15.0 mph - N/A   Partly Cloudy
4:54 PM 70.5 °F 56.8 °F 62% 29.94 in 7.0 mi West 13.8 mph 18.4 mph N/A   Partly Cloudy
5:54 PM 69.4 °F 58.6 °F 68% 29.91 in 7.0 mi West 11.5 mph - N/A   Partly Cloudy
6:54 PM 65.5 °F 57.2 °F 75% 29.91 in 7.0 mi WNW 8.1 mph - N/A   Partly Cloudy
7:54 PM 64.4 °F 57.6 °F 78% 29.94 in 7.0 mi WNW 4.6 mph - N/A   Partly Cloudy
8:54 PM 63.1 °F 57.4 °F 81% 29.94 in 7.0 mi WNW 4.6 mph - N/A   Partly Cloudy
9:54 PM 62.1 °F 57.2 °F 84% 29.95 in 7.0 mi WNW 3.5 mph - N/A   Clear
10:54 PM 62.2 °F 57.0 °F 83% 29.96 in 7.0 mi WNW 3.5 mph - N/A   Clear
11:54 PM 62.2 °F 57.0 °F 83% 29.96 in 7.0 mi Calm Calm - N/A   Clear